When you browse on this site, cookies collect data to enhance your experience and personalize the content and advertising you see.
Visit our Privacy Policy to learn more. By continuing to use the site, you agree to this use of cookies and data.
  • In Slovakia
  • List of Countries
  • For 7 days
  • Water Temperature
  • Weather Map
  • Weather Widgets
  • user-avatar
    Login

    Hourly Weather Viedma

    Today, 20 November, Wednesday

    Time Temperature Precipitation Wind Pressure Humidity
    00:00 +21°C° 0 mm 4 mps 751 mmHg 50%
    01:00 +20°C° 0 mm 6 mps 752 mmHg 49%
    02:00 +18°C° 0 mm 7 mps 753 mmHg 47%
    03:00 +17°C° 0 mm 6 mps 754 mmHg 47%
    04:00 +16°C° 0 mm 6 mps 755 mmHg 46%
    05:00 +15°C° 0 mm 5 mps 756 mmHg 46%
    06:00 +16°C° 0 mm 6 mps 757 mmHg 38%
    07:00 +17°C° 0 mm 6 mps 758 mmHg 31%
    08:00 +18°C° 0 mm 7 mps 758 mmHg 23%
    09:00 +20°C° 0 mm 6 mps 759 mmHg 21%
    10:00 +21°C° 0 mm 6 mps 759 mmHg 19%
    11:00 +21°C° 0 mm 5 mps 759 mmHg 17%
    12:00 +22°C° 0 mm 5 mps 759 mmHg 17%
    13:00 +22°C° 0 mm 5 mps 759 mmHg 16%
    14:00 +23°C° 0 mm 4 mps 759 mmHg 16%
    15:00 +22°C° 0 mm 4 mps 758 mmHg 16%
    16:00 +22°C° 0 mm 3 mps 758 mmHg 17%
    17:00 +21°C° 0 mm 3 mps 758 mmHg 17%
    18:00 +19°C° 0 mm 4 mps 758 mmHg 26%
    19:00 +16°C° 0 mm 6 mps 758 mmHg 34%
    20:00 +12°C° 0 mm 7 mps 758 mmHg 43%
    21:00 +12°C° 0 mm 7 mps 758 mmHg 45%
    22:00 +13°C° 0 mm 6 mps 757 mmHg 48%
    23:00 +13°C° 0 mm 6 mps 757 mmHg 50%

    Tomorrow, 21 November, Thursday

    Time Temperature Precipitation Wind Pressure Humidity
    00:00 +13°C° 0 mm 5 mps 757 mmHg 54%
    01:00 +13°C° 0 mm 5 mps 756 mmHg 58%
    02:00 +13°C° 0 mm 4 mps 756 mmHg 62%
    03:00 +13°C° 0 mm 3 mps 756 mmHg 62%
    04:00 +14°C° 0 mm 2 mps 757 mmHg 62%
    05:00 +14°C° 0 mm 1 mps 757 mmHg 63%
    06:00 +16°C° 0 mm 1 mps 757 mmHg 56%
    07:00 +18°C° 0 mm 1 mps 758 mmHg 49%
    08:00 +20°C° 0 mm 1 mps 758 mmHg 42%
    09:00 +20°C° 0 mm 3 mps 758 mmHg 38%
    10:00 +22°C° 0 mm 5 mps 758 mmHg 34%
    11:00 +23°C° 0 mm 8 mps 758 mmHg 30%
    12:00 +23°C° 0 mm 8 mps 758 mmHg 30%
    13:00 +22°C° 0 mm 8 mps 758 mmHg 31%
    14:00 +22°C° 0 mm 9 mps 758 mmHg 31%
    15:00 +21°C° 0 mm 8 mps 759 mmHg 31%
    16:00 +20°C° 0 mm 8 mps 759 mmHg 32%
    17:00 +18°C° 0 mm 7 mps 759 mmHg 32%
    18:00 +16°C° 0 mm 6 mps 759 mmHg 37%
    19:00 +15°C° 0 mm 5 mps 760 mmHg 42%
    20:00 +13°C° 0 mm 4 mps 760 mmHg 48%
    21:00 +12°C° 0 mm 3 mps 760 mmHg 52%
    22:00 +12°C° 0 mm 3 mps 760 mmHg 57%
    23:00 +11°C° 0 mm 3 mps 761 mmHg 61%

    Day after tomorrow, 22 November, Friday

    Time Temperature Precipitation Wind Pressure Humidity
    00:00 +12°C° 0 mm 2 mps 761 mmHg 64%
    01:00 +10°C° 0 mm 2 mps 761 mmHg 67%
    02:00 +11°C° 0 mm 1 mps 761 mmHg 70%
    03:00 +10°C° 0 mm 1 mps 761 mmHg 71%
    04:00 +10°C° 0 mm 1 mps 761 mmHg 72%
    05:00 +10°C° 0 mm 1 mps 762 mmHg 72%
    06:00 +13°C° 0 mm 2 mps 762 mmHg 60%
    07:00 +15°C° 0 mm 2 mps 762 mmHg 47%
    08:00 +18°C° 0 mm 2 mps 762 mmHg 35%
    09:00 +20°C° 0 mm 3 mps 763 mmHg 30%
    10:00 +22°C° 0 mm 4 mps 763 mmHg 25%
    11:00 +25°C° 0 mm 4 mps 763 mmHg 20%
    12:00 +24°C° 0 mm 6 mps 763 mmHg 21%
    13:00 +26°C° 0 mm 7 mps 762 mmHg 21%
    14:00 +26°C° 0 mm 8 mps 762 mmHg 22%
    15:00 +23°C° 0 mm 8 mps 762 mmHg 24%
    16:00 +22°C° 0 mm 8 mps 761 mmHg 27%
    17:00 +20°C° 0 mm 8 mps 761 mmHg 30%
    18:00 +18°C° 0 mm 8 mps 761 mmHg 36%
    19:00 +16°C° 0 mm 7 mps 761 mmHg 42%
    20:00 +14°C° 0 mm 7 mps 762 mmHg 48%
    21:00 +14°C° 0 mm 7 mps 762 mmHg 49%
    22:00 +14°C° 0 mm 6 mps 762 mmHg 51%
    23:00 +13°C° 0 mm 6 mps 762 mmHg 53%

    23 November, Saturday

    Time Temperature Precipitation Wind Pressure Humidity
    00:00 +14°C° 0 mm 6 mps 761 mmHg 53%
    01:00 +14°C° 0 mm 6 mps 761 mmHg 54%
    02:00 +14°C° 0 mm 6 mps 760 mmHg 54%
    03:00 +14°C° 0 mm 6 mps 760 mmHg 53%
    04:00 +14°C° 0 mm 7 mps 760 mmHg 52%
    05:00 +14°C° 0 mm 7 mps 760 mmHg 51%
    06:00 +15°C° 0 mm 7 mps 760 mmHg 45%
    07:00 +17°C° 0 mm 8 mps 760 mmHg 39%
    08:00 +19°C° 0 mm 9 mps 759 mmHg 33%
    09:00 +22°C° 0 mm 9 mps 759 mmHg 29%
    10:00 +23°C° 0 mm 9 mps 759 mmHg 25%
    11:00 +26°C° 0 mm 10 mps 758 mmHg 20%
    12:00 +27°C° 0 mm 9 mps 757 mmHg 22%
    13:00 +27°C° 0 mm 9 mps 756 mmHg 23%
    14:00 +27°C° 0 mm 9 mps 756 mmHg 25%
    15:00 +24°C° 0 mm 9 mps 755 mmHg 34%
    16:00 +23°C° 0 mm 9 mps 755 mmHg 44%
    17:00 +21°C° 0 mm 9 mps 754 mmHg 54%
    18:00 +20°C° 0.2 mm 7 mps 754 mmHg 59%
    19:00 +20°C° 0.2 mm 6 mps 754 mmHg 64%
    20:00 +19°C° 0.2 mm 4 mps 754 mmHg 69%
    21:00 +19°C° 0.1 mm 5 mps 754 mmHg 70%
    22:00 +19°C° 0.1 mm 5 mps 754 mmHg 72%
    23:00 +20°C° 0.1 mm 6 mps 753 mmHg 74%

    24 November, Sunday

    Time Temperature Precipitation Wind Pressure Humidity
    00:00 +18°C° 2.4 mm 7 mps 753 mmHg 78%
    01:00 +18°C° 2.4 mm 7 mps 753 mmHg 83%
    02:00 +17°C° 2.4 mm 7 mps 752 mmHg 88%
    03:00 +17°C° 1.1 mm 8 mps 752 mmHg 88%
    04:00 +17°C° 1.1 mm 9 mps 752 mmHg 87%
    05:00 +17°C° 1.1 mm 9 mps 752 mmHg 87%
    06:00 +17°C° 0 mm 8 mps 751 mmHg 86%
    07:00 +18°C° 0 mm 7 mps 751 mmHg 85%
    08:00 +19°C° 0 mm 6 mps 751 mmHg 84%
    09:00 +20°C° 0.3 mm 6 mps 751 mmHg 83%
    10:00 +20°C° 0.3 mm 6 mps 751 mmHg 81%
    11:00 +21°C° 0.3 mm 6 mps 750 mmHg 80%
    12:00 +21°C° 0 mm 5 mps 750 mmHg 77%
    13:00 +22°C° 0 mm 5 mps 749 mmHg 74%
    14:00 +23°C° 0 mm 5 mps 749 mmHg 72%
    15:00 +26°C° 0.2 mm 4 mps 749 mmHg 63%
    16:00 +27°C° 0.2 mm 4 mps 749 mmHg 55%
    17:00 +28°C° 0.2 mm 4 mps 748 mmHg 46%
    18:00 +27°C° 0.1 mm 4 mps 749 mmHg 51%
    19:00 +25°C° 0.1 mm 5 mps 749 mmHg 56%
    20:00 +22°C° 0.1 mm 6 mps 749 mmHg 61%
    21:00 +20°C° 0 mm 6 mps 750 mmHg 66%
    22:00 +17°C° 0 mm 6 mps 751 mmHg 70%
    23:00 +16°C° 0 mm 6 mps 751 mmHg 75%

    25 November, Monday

    Time Temperature Precipitation Wind Pressure Humidity
    00:00 +15°C° 0 mm 6 mps 752 mmHg 74%
    01:00 +14°C° 0 mm 6 mps 752 mmHg 73%
    02:00 +14°C° 0 mm 6 mps 752 mmHg 72%
    03:00 +13°C° 0 mm 5 mps 752 mmHg 72%
    04:00 +13°C° 0 mm 5 mps 753 mmHg 72%
    05:00 +13°C° 0 mm 5 mps 754 mmHg 73%
    06:00 +14°C° 0 mm 6 mps 754 mmHg 61%
    07:00 +15°C° 0 mm 8 mps 754 mmHg 49%
    08:00 +16°C° 0 mm 9 mps 755 mmHg 37%
    09:00 +17°C° 0 mm 9 mps 755 mmHg 36%
    10:00 +18°C° 0 mm 8 mps 755 mmHg 35%
    11:00 +18°C° 0 mm 7 mps 755 mmHg 33%
    12:00 +20°C° 0 mm 7 mps 755 mmHg 32%
    13:00 +20°C° 0 mm 7 mps 754 mmHg 30%
    14:00 +21°C° 0 mm 6 mps 754 mmHg 28%
    15:00 +21°C° 0 mm 6 mps 754 mmHg 27%
    16:00 +20°C° 0 mm 6 mps 754 mmHg 26%
    17:00 +20°C° 0 mm 5 mps 754 mmHg 25%
    18:00 +17°C° 0 mm 5 mps 754 mmHg 32%
    19:00 +15°C° 0 mm 4 mps 754 mmHg 40%
    20:00 +14°C° 0 mm 3 mps 754 mmHg 48%
    21:00 +13°C° 0 mm 3 mps 754 mmHg 55%
    22:00 +13°C° 0 mm 2 mps 754 mmHg 62%
    23:00 +13°C° 0 mm 2 mps 754 mmHg 69%
    Show more